This is the latest recevied weather packets stored in our database for station/object KA8OAD-10. If no packets are shown the sender has not sent any weather packets the latest 10 day(s).
| Time | Temp. | Humidity | Pressure | Rain* | Wind** | Luminosity | Snow |
|---|---|---|---|---|---|---|---|
| 1787535962 | 18.89° C | 72% | 1012.3 hPa | 0 mm | - | 0 W/m² | - |
| 1787535663 | 19.44° C | 72% | 1012.2 hPa | 0 mm | - | 0 W/m² | - |
| 1787535360 | 19.44° C | 71% | 1011.6 hPa | 0 mm | - | 0 W/m² | - |
| 1787534763 | 19.44° C | 70% | 1011.5 hPa | 0 mm | - | 0 W/m² | - |
| 1787534166 | 19.44° C | 69% | 1011.5 hPa | 0 mm | - | 0 W/m² | - |
| 1787533863 | 19.44° C | 68% | 1011.5 hPa | 0 mm | - | 0 W/m² | - |
| 1787533266 | 20° C | 67% | 1011.2 hPa | 0 mm | - | 0 W/m² | - |
| 1787532966 | 20° C | 66% | 1011.2 hPa | 0 mm | - | 0 W/m² | - |
| 1787532663 | 20° C | 66% | 1011.1 hPa | 0 mm | - | 0 W/m² | - |
| 1787532362 | 20° C | 65% | 1011 hPa | 0 mm | - | 0 W/m² | - |
| 1787532063 | 20.56° C | 65% | 1010.7 hPa | 0 mm | - | 0 W/m² | - |
| 1787531164 | 20.56° C | 64% | 1010.6 hPa | 0 mm | - | 0 W/m² | - |
| 1787529661 | 21.11° C | 61% | 1010.9 hPa | 0 mm | - | 5 W/m² | - |
| 1787529065 | 21.11° C | 60% | 1010.8 hPa | 0 mm | - | 11 W/m² | - |
| 1787527261 | 21.67° C | 58% | 1010.9 hPa | 0 mm | - | 32 W/m² | - |
| 1787526960 | 21.67° C | 58% | 1011 hPa | 0 mm | - | 33 W/m² | - |
| 1787525461 | 21.67° C | 59% | 1011.3 hPa | 0 mm | - | 33 W/m² | - |
| 1787525161 | 21.67° C | 59% | 1011.3 hPa | 0 mm | - | 39 W/m² | - |
| 1787524864 | 21.67° C | 60% | 1011.4 hPa | 0 mm | - | 49 W/m² | - |
| 1787523963 | 22.22° C | 61% | 1011.5 hPa | 0 mm | - | 32 W/m² | - |
| 1787523362 | 22.22° C | 59% | 1011.6 hPa | 0 mm | - | 49 W/m² | - |
| 1787523060 | 22.22° C | 59% | 1011.7 hPa | 0 mm | - | 47 W/m² | - |
| 1787522764 | 22.22° C | 59% | 1011.6 hPa | 0 mm | - | 54 W/m² | - |
| 1787522463 | 22.22° C | 59% | 1011.7 hPa | 0 mm | - | 56 W/m² | - |
| 1787522163 | 22.22° C | 59% | 1011.7 hPa | 0 mm | - | 60 W/m² | - |
* Rain latest hour (hover to see other rain measurements)
** Current wind speed in m/s (hover to see current wind gust speed)